Time,TemperatureF,DewpointF,PressureIn,WindDirection,WindDirectionDegrees,WindSpeedMPH,WindSpeedGustMPH,Humidity,HourlyPrecipIn,Conditions,Clouds,dailyrainin,SoftwareType,DateUTC
2013-04-02 00:03:00,34.0,18.0,30.01,West,260,0.0,0.0,52,0.00,,,0.10,,2013-04-02 04:03:00,
2013-04-02 00:13:00,34.0,18.0,30.01,West,260,0.0,0.0,52,0.00,,,0.10,,2013-04-02 04:13:00,
2013-04-02 00:23:00,34.0,19.0,30.01,West,260,0.0,0.0,53,0.00,,,0.10,,2013-04-02 04:23:00,
2013-04-02 00:33:00,34.0,19.0,30.01,West,260,0.0,0.0,53,0.00,,,0.10,,2013-04-02 04:33:00,
2013-04-02 00:43:00,34.0,19.0,30.01,West,260,0.0,0.0,53,0.00,,,0.10,,2013-04-02 04:43:00,
2013-04-02 00:53:00,34.0,19.0,30.02,WNW,302,0.0,0.0,54,0.00,,,0.10,,2013-04-02 04:53:00,
2013-04-02 01:02:00,34.0,20.0,30.02,WNW,301,0.0,0.0,55,0.00,,,0.10,,2013-04-02 05:02:00,
2013-04-02 01:12:00,34.0,20.0,30.02,WNW,301,0.0,0.0,55,0.00,,,0.10,,2013-04-02 05:12:00,
2013-04-02 01:22:00,34.0,20.0,30.02,West,263,0.0,0.0,55,0.00,,,0.10,,2013-04-02 05:22:00,
2013-04-02 01:32:00,34.0,20.0,30.03,West,263,0.0,0.0,55,0.00,,,0.03,,2013-04-02 05:32:00,
2013-04-02 01:42:00,34.0,20.0,30.03,West,263,0.0,0.0,55,0.00,,,0.03,,2013-04-02 05:42:00,
2013-04-02 01:52:00,34.0,20.0,30.03,West,263,0.0,0.0,55,0.00,,,0.03,,2013-04-02 05:52:00,
2013-04-02 02:02:00,34.0,20.0,30.03,West,263,0.0,0.0,55,0.00,,,0.03,,2013-04-02 06:02:00,
2013-04-02 02:12:00,34.0,20.0,30.03,West,263,0.0,0.0,55,0.00,,,0.03,,2013-04-02 06:12:00,
2013-04-02 02:32:00,32.0,19.0,30.03,WNW,291,0.0,0.0,58,0.00,,,0.03,,2013-04-02 06:32:00,
2013-04-02 02:42:00,32.0,19.0,30.03,WNW,291,0.0,0.0,58,0.00,,,0.03,,2013-04-02 06:42:00,
2013-04-02 02:52:00,32.0,19.0,30.04,WNW,291,0.0,0.0,59,0.00,,,0.03,,2013-04-02 06:52:00,
2013-04-02 03:02:00,31.0,19.0,30.04,WNW,291,0.0,0.0,60,0.00,,,0.03,,2013-04-02 07:02:00,
2013-04-02 03:12:00,31.0,19.0,30.04,WNW,291,0.0,0.0,60,0.00,,,0.03,,2013-04-02 07:12:00,
2013-04-02 03:22:00,31.0,19.0,30.03,WNW,291,0.0,0.0,61,0.00,,,0.03,,2013-04-02 07:22:00,
2013-04-02 03:32:00,31.0,19.0,30.04,WNW,291,0.0,0.0,61,0.00,,,0.03,,2013-04-02 07:32:00,
2013-04-02 03:42:00,31.0,19.0,30.04,WNW,291,0.0,0.0,61,0.00,,,0.03,,2013-04-02 07:42:00,
2013-04-02 03:53:00,31.0,20.0,30.04,WNW,291,0.0,0.0,62,0.00,,,0.03,,2013-04-02 07:53:00,
2013-04-02 04:02:00,30.0,19.0,30.04,WNW,291,0.0,0.0,62,0.00,,,0.03,,2013-04-02 08:02:00,
2013-04-02 04:13:00,30.0,19.0,30.04,WNW,291,0.0,0.0,62,0.00,,,0.03,,2013-04-02 08:13:00,
2013-04-02 04:22:00,30.0,19.0,30.04,WNW,291,0.0,0.0,62,0.00,,,0.03,,2013-04-02 08:22:00,
2013-04-02 04:32:00,30.0,19.0,30.04,WNW,291,0.0,0.0,62,0.00,,,0.03,,2013-04-02 08:32:00,
2013-04-02 04:42:00,30.0,19.0,30.04,WNW,291,0.0,0.0,62,0.00,,,0.03,,2013-04-02 08:42:00,
2013-04-02 04:52:00,30.0,19.0,30.04,WNW,291,0.0,0.0,62,0.00,,,0.03,,2013-04-02 08:52:00,
2013-04-02 05:02:00,29.0,18.0,30.05,WNW,301,0.0,0.0,63,0.00,,,0.03,,2013-04-02 09:02:00,
2013-04-02 05:13:00,29.0,18.0,30.05,WNW,301,0.0,0.0,63,0.00,,,0.03,,2013-04-02 09:13:00,
2013-04-02 05:22:00,29.0,18.0,30.05,WNW,301,0.0,0.0,63,0.00,,,0.03,,2013-04-02 09:22:00,
2013-04-02 05:32:00,28.0,17.0,30.05,SSE,149,0.0,0.0,64,0.00,,,0.03,,2013-04-02 09:32:00,
2013-04-02 05:43:00,28.0,17.0,30.05,SSE,149,0.0,0.0,64,0.00,,,0.03,,2013-04-02 09:43:00,
2013-04-02 05:53:00,28.0,18.0,30.06,SSE,149,0.0,0.0,66,0.00,,,0.03,,2013-04-02 09:53:00,
2013-04-02 06:03:00,28.0,18.0,30.06,SSE,149,0.0,0.0,66,0.00,,,0.03,,2013-04-02 10:03:00,
2013-04-02 06:13:00,28.0,18.0,30.06,SSE,149,0.0,0.0,66,0.00,,,0.03,,2013-04-02 10:13:00,
2013-04-02 06:23:00,28.0,18.0,30.07,SSE,149,0.0,0.0,66,0.00,,,0.03,,2013-04-02 10:23:00,
2013-04-02 06:33:00,28.0,18.0,30.07,SSE,149,0.0,0.0,66,0.00,,,0.03,,2013-04-02 10:33:00,
2013-04-02 06:43:00,28.0,18.0,30.07,SSE,149,0.0,0.0,66,0.00,,,0.03,,2013-04-02 10:43:00,
2013-04-02 06:53:00,28.0,18.0,30.07,SSE,149,0.0,0.0,66,0.00,,,0.03,,2013-04-02 10:53:00,
2013-04-02 07:02:00,28.0,18.0,30.07,SSE,149,0.0,0.0,66,0.00,,,0.03,,2013-04-02 11:02:00,
2013-04-02 08:10:00,27.0,18.0,30.14,WNW,302,2.0,0.0,68,0.00,,,0.03,,2013-04-02 12:10:00,
2013-04-02 08:32:00,27.0,18.0,30.14,WNW,302,2.0,0.0,68,0.00,,,0.03,,2013-04-02 12:32:00,
2013-04-02 08:42:00,27.0,18.0,30.14,WNW,302,2.0,0.0,68,0.00,,,0.03,,2013-04-02 12:42:00,
2013-04-02 08:53:00,27.0,18.0,30.14,WNW,302,2.0,0.0,68,0.00,,,0.03,,2013-04-02 12:53:00,
2013-04-02 09:02:00,27.0,18.0,30.14,WNW,302,2.0,0.0,68,0.00,,,0.03,,2013-04-02 13:02:00,
2013-04-02 09:33:00,29.0,19.0,30.16,WNW,283,0.0,0.0,67,0.00,,,0.03,,2013-04-02 13:33:00,
2013-04-02 09:42:00,29.0,19.0,30.16,WNW,283,0.0,0.0,67,0.00,,,0.03,,2013-04-02 13:42:00,
2013-04-02 09:52:00,29.0,19.0,30.16,WNW,283,0.0,0.0,67,0.00,,,0.03,,2013-04-02 13:52:00,
2013-04-02 10:02:00,29.0,19.0,30.16,WNW,283,0.0,0.0,67,0.00,,,0.03,,2013-04-02 14:02:00,
2013-04-02 10:20:00,30.0,19.0,30.17,SSW,194,1.0,0.0,62,0.00,,,0.03,,2013-04-02 14:20:00,
2013-04-02 10:52:00,30.0,19.0,30.17,SSW,194,1.0,0.0,62,0.00,,,0.03,,2013-04-02 14:52:00,
2013-04-02 11:02:00,30.0,19.0,30.17,SSW,194,1.0,0.0,62,0.00,,,0.03,,2013-04-02 15:02:00,
2013-04-02 11:12:00,30.0,19.0,30.17,SSW,194,1.0,0.0,62,0.00,,,0.03,,2013-04-02 15:12:00,
2013-04-02 14:21:00,39.0,17.0,30.14,WSW,248,2.0,0.0,41,0.00,,,0.03,,2013-04-02 18:21:00,
2013-04-02 14:23:00,38.0,15.0,30.14,NW,315,9.0,9.0,38,0.00,,,0.03,,2013-04-02 18:23:00,
2013-04-02 14:35:00,38.0,15.0,30.14,NW,315,9.0,9.0,38,0.00,,,0.03,,2013-04-02 18:35:00,
2013-04-02 14:43:00,38.0,15.0,30.14,NW,315,9.0,9.0,38,0.00,,,0.03,,2013-04-02 18:43:00,
2013-04-02 14:54:00,39.0,17.0,30.14,WSW,248,2.0,0.0,41,0.00,,,0.03,,2013-04-02 18:54:00,
2013-04-02 15:03:00,39.0,17.0,30.14,WSW,248,2.0,0.0,41,0.00,,,0.03,,2013-04-02 19:03:00,
2013-04-02 15:13:00,39.0,17.0,30.14,WSW,248,2.0,0.0,41,0.00,,,0.03,,2013-04-02 19:13:00,
2013-04-02 15:34:00,41.0,17.0,30.13,WSW,242,8.0,8.0,37,0.00,,,0.03,,2013-04-02 19:34:00,
2013-04-02 15:47:00,41.0,17.0,30.13,WSW,242,8.0,8.0,37,0.00,,,0.03,,2013-04-02 19:47:00,
2013-04-02 15:57:00,41.0,17.0,30.13,WSW,242,8.0,8.0,37,0.00,,,0.03,,2013-04-02 19:57:00,
2013-04-02 16:03:00,41.0,17.0,30.13,WSW,242,8.0,8.0,37,0.00,,,0.03,,2013-04-02 20:03:00,
2013-04-02 16:23:00,42.0,17.0,30.11,North,7,4.0,10.0,36,0.00,,,0.03,,2013-04-02 20:23:00,
2013-04-02 16:34:00,40.0,15.0,30.11,West,270,4.0,0.0,36,0.00,,,0.03,,2013-04-02 20:34:00,
2013-04-02 16:44:00,40.0,15.0,30.11,West,270,4.0,0.0,36,0.00,,,0.03,,2013-04-02 20:44:00,
2013-04-02 16:53:00,40.0,15.0,30.11,West,270,4.0,0.0,36,0.00,,,0.03,,2013-04-02 20:53:00,
2013-04-02 17:04:00,40.0,16.0,30.11,West,277,5.0,5.0,37,0.00,,,0.03,,2013-04-02 21:04:00,
2013-04-02 17:13:00,40.0,16.0,30.11,West,277,5.0,5.0,37,0.00,,,0.03,,2013-04-02 21:13:00,
2013-04-02 17:23:00,40.0,16.0,30.11,West,277,5.0,5.0,37,0.00,,,0.03,,2013-04-02 21:23:00,
2013-04-02 17:34:00,40.0,16.0,30.11,West,277,5.0,5.0,37,0.00,,,0.03,,2013-04-02 21:34:00,
2013-04-02 17:44:00,40.0,16.0,30.11,West,277,5.0,5.0,37,0.00,,,0.03,,2013-04-02 21:44:00,
2013-04-02 18:05:00,40.0,16.0,30.11,West,259,0.0,0.0,38,0.00,,,0.03,,2013-04-02 22:05:00,
2013-04-02 18:14:00,40.0,16.0,30.11,West,259,0.0,0.0,38,0.00,,,0.03,,2013-04-02 22:14:00,
2013-04-02 18:25:00,40.0,16.0,30.11,West,259,0.0,0.0,38,0.00,,,0.03,,2013-04-02 22:25:00,
2013-04-02 18:33:00,40.0,16.0,30.12,WSW,239,2.0,7.0,38,0.00,,,0.03,,2013-04-02 22:33:00,
2013-04-02 18:43:00,40.0,16.0,30.12,WSW,239,2.0,7.0,38,0.00,,,0.03,,2013-04-02 22:43:00,
2013-04-02 18:54:00,39.0,16.0,30.13,NW,323,5.0,0.0,39,0.00,,,0.03,,2013-04-02 22:54:00,
2013-04-02 19:03:00,39.0,16.0,30.13,North,352,5.0,5.0,39,0.00,,,0.03,,2013-04-02 23:03:00,
2013-04-02 19:13:00,38.0,16.0,30.14,NW,315,3.0,4.0,40,0.00,,,0.03,,2013-04-02 23:13:00,
2013-04-02 19:23:00,38.0,16.0,30.14,NW,315,3.0,4.0,40,0.00,,,0.03,,2013-04-02 23:23:00,
2013-04-02 19:35:00,38.0,16.0,30.14,WSW,238,0.0,0.0,41,0.00,,,0.03,,2013-04-02 23:35:00,
2013-04-02 19:43:00,38.0,16.0,30.14,WSW,238,0.0,0.0,41,0.00,,,0.03,,2013-04-02 23:43:00,
2013-04-02 19:54:00,38.0,16.0,30.14,WSW,238,0.0,0.0,41,0.00,,,0.03,,2013-04-02 23:54:00,
2013-04-02 20:04:00,38.0,17.0,30.14,NW,307,1.0,5.0,42,0.00,,,0.03,,2013-04-03 00:04:00,
2013-04-02 20:13:00,38.0,17.0,30.14,NW,307,1.0,5.0,42,0.00,,,0.03,,2013-04-03 00:13:00,
2013-04-02 20:25:00,38.0,17.0,30.14,NW,307,1.0,5.0,42,0.00,,,0.03,,2013-04-03 00:25:00,
2013-04-02 20:34:00,37.0,17.0,30.15,WNW,293,0.0,0.0,44,0.00,,,0.03,,2013-04-03 00:34:00,
2013-04-02 20:48:00,37.0,17.0,30.15,WNW,293,0.0,0.0,44,0.00,,,0.03,,2013-04-03 00:48:00,
2013-04-02 20:57:00,37.0,18.0,30.15,WNW,293,0.0,0.0,45,0.00,,,0.03,,2013-04-03 00:57:00,
2013-04-02 21:04:00,36.0,17.0,30.16,WNW,293,0.0,0.0,46,0.00,,,0.03,,2013-04-03 01:04:00,
2013-04-02 21:13:00,36.0,17.0,30.16,WNW,293,0.0,0.0,46,0.00,,,0.03,,2013-04-03 01:13:00,
2013-04-02 21:23:00,36.0,18.0,30.16,WNW,293,0.0,0.0,47,0.00,,,0.03,,2013-04-03 01:23:00,
2013-04-02 21:33:00,35.0,18.0,30.16,WNW,293,0.0,0.0,49,0.00,,,0.03,,2013-04-03 01:33:00,
2013-04-02 21:42:00,35.0,18.0,30.16,WNW,293,0.0,0.0,49,0.00,,,0.03,,2013-04-03 01:42:00,
2013-04-02 21:53:00,35.0,17.0,30.17,WNW,293,0.0,0.0,48,0.00,,,0.03,,2013-04-03 01:53:00,
2013-04-02 22:03:00,35.0,18.0,30.17,WNW,293,0.0,0.0,50,0.00,,,0.03,,2013-04-03 02:03:00,
2013-04-02 22:13:00,35.0,18.0,30.17,WNW,293,0.0,0.0,50,0.00,,,0.03,,2013-04-03 02:13:00,
2013-04-02 22:24:00,34.0,18.0,30.18,WNW,293,0.0,0.0,52,0.00,,,0.03,,2013-04-03 02:24:00,
2013-04-02 22:34:00,33.0,18.0,30.18,WNW,293,0.0,0.0,53,0.00,,,0.03,,2013-04-03 02:34:00,
2013-04-02 22:43:00,33.0,18.0,30.18,WNW,293,0.0,0.0,53,0.00,,,0.03,,2013-04-03 02:43:00,
2013-04-02 22:53:00,33.0,18.0,30.18,WNW,293,0.0,0.0,53,0.00,,,0.03,,2013-04-03 02:53:00,
2013-04-02 23:05:00,33.0,18.0,30.18,WNW,293,0.0,0.0,54,0.00,,,0.03,,2013-04-03 03:05:00,
2013-04-02 23:14:00,33.0,18.0,30.18,WNW,293,0.0,0.0,54,0.00,,,0.03,,2013-04-03 03:14:00,
2013-04-02 23:23:00,33.0,18.0,30.18,WNW,293,0.0,0.0,53,0.00,,,0.03,,2013-04-03 03:23:00,
2013-04-02 23:37:00,33.0,18.0,30.18,WNW,293,0.0,0.0,53,0.00,,,0.03,,2013-04-03 03:37:00,
2013-04-02 23:44:00,33.0,18.0,30.18,WNW,293,0.0,0.0,53,0.00,,,0.03,,2013-04-03 03:44:00,
2013-04-02 23:54:00,33.0,18.0,30.18,WNW,293,0.0,0.0,54,0.00,,,0.03,,2013-04-03 03:54:00,